Weather reports worldwide

Advertisment
Weybourne, United Kingdom (3488): temperature & dewpoint: 13.02.2019 13:00:00 - 19.02.2019 13:00:00 (GMT)Weybourne, United Kingdom (3488): wind speed & gusts: 13.02.2019 13:00:00 - 19.02.2019 13:00:00 (GMT)Weybourne, United Kingdom (3488): wind direction: 13.02.2019 13:00:00 - 19.02.2019 13:00:00 (GMT)Weybourne, United Kingdom (3488): reduced air pressure: 13.02.2019 13:00:00 - 19.02.2019 13:00:00 (GMT)Weybourne, United Kingdom (3488): visibility: 13.02.2019 13:00:00 - 19.02.2019 13:00:00 (GMT)Weybourne, United Kingdom (3488): sunshine duration: 13.02.2019 13:00:00 - 19.02.2019 13:00:00 (GMT)Weybourne, United Kingdom (3488): precipitation: 13.02.2019 13:00:00 - 19.02.2019 13:00:00 (GMT)
Date & Time tt [°C] td [°C] ff [km/h] ff [kn] fx [km/h] fx [kn] dd ppp [hPa] vv [km] sd [min] rr [mm]
19.02.2019 13:00:00 10,7 3,6 26 14 - - WSW 1016,8 35 60 0,0
19.02.2019 12:00:00 9,5 4,6 24 13 - - WSW 1017,1 40 6 0,0
19.02.2019 11:00:00 7,7 4,5 26 14 - - SW 1017,1 24 0 0,0
19.02.2019 10:00:00 7,2 4,1 29 16 - - WSW 1016,7 40 0 0,0
19.02.2019 09:00:00 6,5 4,0 29 16 - - SW 1016,1 35 0 0,0
19.02.2019 08:00:00 5,9 3,7 34 18 46 25 SW 1015,7 25 0 0,0
19.02.2019 07:00:00 5,9 3,6 35 19 - - SW 1014,8 30 0 0,0
19.02.2019 06:00:00 5,2 3,3 31 17 46 25 SW 1014,2 35 0 0,0
19.02.2019 05:00:00 5,0 3,2 34 18 46 25 SW 1013,8 30 0 0,0
19.02.2019 04:00:00 4,9 3,1 31 17 50 27 SW 1013,5 28 0 0,0
19.02.2019 03:00:00 5,5 3,3 34 18 - - SW 1013,3 20 0 0,0
19.02.2019 02:00:00 5,2 3,1 29 16 - - SW 1013,4 23 0 0,0
19.02.2019 01:00:00 5,1 2,9 28 15 - - SSW 1013,2 35 0 0,0
19.02.2019 00:00:00 5,5 3,0 28 15 - - SW 1013,1 30 - 0,0
18.02.2019 23:00:00 5,8 3,4 28 15 - - SW 1013,1 30 0 0,0
18.02.2019 22:00:00 6,2 4,1 28 15 - - SW 1013,1 30 0 0,0
18.02.2019 21:00:00 6,7 4,5 28 15 - - SW 1012,8 50 0 0,0
18.02.2019 20:00:00 7,6 5,2 28 15 - - SW 1012,5 45 0 0,0
18.02.2019 19:00:00 8,2 5,9 28 15 - - SSW 1012,1 45 0 0,0
18.02.2019 18:00:00 8,7 5,7 26 14 - - SSW 1012,0 28 0 0,0
18.02.2019 17:00:00 9,3 5,6 26 14 - - SSW 1011,9 50 0 0,0
18.02.2019 16:00:00 9,7 6,1 21 11 - - S 1011,7 45 0 0,0
18.02.2019 15:00:00 10,3 7,0 24 13 - - S 1011,9 30 0 0,0
18.02.2019 14:00:00 10,7 6,9 22 12 - - SSW 1012,3 27 0 0,0
18.02.2019 13:00:00 10,3 7,1 22 12 - - SSW 1012,8 19 0 0,0
18.02.2019 12:00:00 10,5 7,8 22 12 - - SSW 1013,3 16 0 0,0
18.02.2019 11:00:00 9,6 6,9 28 15 - - SSW 1013,7 19 0 0,0
18.02.2019 10:00:00 9,0 7,0 18 10 - - S 1014,1 19 0 0,0
18.02.2019 09:00:00 7,9 6,5 24 13 - - SSW 1014,2 14 0 0,0
18.02.2019 08:00:00 7,3 6,3 26 14 - - S 1014,1 11 0 0,0
18.02.2019 07:00:00 7,3 6,0 22 12 - - S 1013,8 7 0 0,0
18.02.2019 06:00:00 7,4 6,4 22 12 - - S 1013,9 13 0 0,0
18.02.2019 05:00:00 7,8 6,7 21 11 - - S 1014,1 11 0 0,0
18.02.2019 04:00:00 8,3 7,1 21 11 - - S 1014,3 12 0 0,0
18.02.2019 03:00:00 8,4 7,0 18 10 - - S 1014,6 14 0 0,0
18.02.2019 02:00:00 8,4 6,9 15 8 - - S 1015,0 15 0 0,0
18.02.2019 01:00:00 8,7 6,9 18 10 - - SSW 1015,1 17 0 0,0
18.02.2019 00:00:00 8,2 6,8 21 11 - - S 1015,0 16 - 0,0
17.02.2019 23:00:00 7,9 6,6 22 12 - - S 1015,0 14 0 0,0
17.02.2019 22:00:00 8,5 6,8 24 13 - - S 1014,8 15 0 0,0
17.02.2019 21:00:00 9,3 6,9 24 13 - - S 1014,6 19 0 0,0
17.02.2019 20:00:00 10,1 6,7 22 12 - - S 1014,1 23 0 0,0
17.02.2019 19:00:00 11,1 6,7 18 10 - - S 1013,7 30 0 0,0
17.02.2019 18:00:00 11,4 6,5 21 11 - - S 1013,3 27 0 0,0
17.02.2019 17:00:00 11,7 6,4 16 9 - - S 1012,8 45 18 0,0
17.02.2019 16:00:00 13,4 6,7 21 11 - - S 1012,7 35 54 0,0
17.02.2019 15:00:00 14,4 6,1 26 14 48 26 SSW 1012,7 30 60 0,0
17.02.2019 14:00:00 14,4 6,1 31 17 46 25 SSW 1012,7 30 60 0,0
17.02.2019 13:00:00 14,0 5,6 29 16 48 26 S 1012,9 30 60 0,0
17.02.2019 12:00:00 13,0 5,7 29 16 - - S 1013,2 24 60 -
17.02.2019 11:00:00 10,9 6,4 28 15 46 25 S 1013,7 22 60 -
17.02.2019 10:00:00 9,6 6,1 28 15 - - S 1014,5 12 60 0,0
17.02.2019 09:00:00 7,7 5,5 29 16 - - S 1014,8 10 60 0,0
17.02.2019 08:00:00 6,9 5,1 31 17 - - S 1015,3 8 6 0,0
17.02.2019 07:00:00 6,4 4,9 28 15 - - S 1015,2 7 0 0,0
17.02.2019 06:00:00 6,6 5,3 28 15 - - S 1015,6 7 0 0,0
17.02.2019 05:00:00 6,3 5,7 26 14 - - S 1016,2 5 0 0,0
17.02.2019 04:00:00 6,6 6,0 18 10 - - S 1017,0 5 0 0,0
17.02.2019 03:00:00 7,1 6,5 26 14 - - S 1017,7 4,6 0 0,0
17.02.2019 02:00:00 8,6 7,5 21 11 - - S 1018,6 10 0 0,0
17.02.2019 01:00:00 9,5 7,7 15 8 - - S 1019,3 15 0 0,0
17.02.2019 00:00:00 10,6 8,4 21 11 - - SSW 1020,1 25 - 0,0
16.02.2019 23:00:00 10,8 8,7 26 14 46 25 SSW 1020,4 14 0 0,0
16.02.2019 22:00:00 10,3 8,7 24 13 - - S 1020,7 11 0 0,0
16.02.2019 21:00:00 9,7 8,5 24 13 - - S 1020,6 7 0 0,0
16.02.2019 20:00:00 10,0 8,5 21 11 - - S 1020,7 9 0 0,0
16.02.2019 19:00:00 10,4 8,8 15 8 - - S 1020,8 9 0 0,0
16.02.2019 18:00:00 11,9 8,8 22 12 - - SSW 1020,7 19 0 0,0
16.02.2019 17:00:00 11,8 8,9 24 13 - - SSW 1020,3 35 0 0,0
16.02.2019 16:00:00 12,3 9,0 24 13 - - SW 1020,7 22 0 0,0
16.02.2019 15:00:00 12,7 9,4 21 11 - - SSW 1021,0 24 0 0,0
16.02.2019 14:00:00 12,4 9,2 15 8 - - SW 1021,3 21 0 0,0
16.02.2019 13:00:00 11,8 8,9 15 8 - - SW 1021,8 13 6 0,0
16.02.2019 12:00:00 12,1 8,5 18 10 - - SSW 1022,1 12 30 0,0
16.02.2019 11:00:00 10,2 7,6 21 11 - - SW 1022,2 10 0 0,0
16.02.2019 10:00:00 9,5 7,1 24 13 - - SSW 1021,6 11 0 0,0
16.02.2019 09:00:00 7,9 6,0 21 11 - - SSW 1021,5 9 0 0,0
16.02.2019 08:00:00 7,4 5,3 21 11 - - S 1021,5 11 0 0,0
16.02.2019 07:00:00 7,1 4,7 28 15 - - SSW 1021,1 11 0 0,0
16.02.2019 06:00:00 6,3 4,0 22 12 - - SSW 1020,9 11 0 0,0
16.02.2019 05:00:00 6,9 3,7 28 15 - - SSW 1020,4 16 0 0,0
16.02.2019 04:00:00 6,6 3,3 28 15 - - SSW 1020,2 20 0 0,0
16.02.2019 03:00:00 6,5 2,9 28 15 - - SSW 1020,5 19 0 0,0
16.02.2019 02:00:00 7,2 2,9 34 18 - - SSW 1020,7 30 0 0,0
16.02.2019 01:00:00 7,3 2,7 29 16 - - SSW 1021,5 25 0 0,0
16.02.2019 00:00:00 7,9 3,1 31 17 - - SSW 1021,5 27 - 0,0
15.02.2019 23:00:00 8,0 3,5 31 17 - - SSW 1021,8 19 0 0,0
15.02.2019 22:00:00 7,7 4,4 28 15 - - SSW 1022,4 12 0 0,0
15.02.2019 21:00:00 7,7 4,4 29 16 - - S 1022,6 13 0 0,0
15.02.2019 20:00:00 8,4 4,8 31 17 - - S 1022,9 13 0 0,0
15.02.2019 19:00:00 9,3 4,2 26 14 - - S 1023,3 25 0 0,0
15.02.2019 18:00:00 10,1 4,0 22 12 - - S 1023,7 35 0 0,0
15.02.2019 17:00:00 11,1 4,1 15 8 - - S 1023,9 28 54 0,0
15.02.2019 16:00:00 13,3 4,5 15 8 - - S 1024,2 35 60 0,0
15.02.2019 15:00:00 13,9 4,9 16 9 - - S 1024,9 26 60 0,0
15.02.2019 14:00:00 14,0 4,1 18 10 - - SSW 1025,6 24 60 0,0
15.02.2019 13:00:00 13,2 5,1 16 9 - - S 1026,0 40 60 0,0
15.02.2019 12:00:00 11,4 4,9 21 11 - - SSW 1027,1 11 60 0,0
15.02.2019 11:00:00 10,1 5,0 15 8 - - S 1027,5 13 60 0,0
15.02.2019 10:00:00 8,0 4,3 15 8 - - SSW 1027,9 10 60 0,0
15.02.2019 09:00:00 5,9 3,3 21 11 - - S 1027,8 9 60 0,0
15.02.2019 08:00:00 4,1 2,6 16 9 - - S 1028,1 8 18 0,0
15.02.2019 07:00:00 4,1 2,5 18 10 - - SSW 1028,1 8 0 0,0
15.02.2019 06:00:00 3,8 2,4 22 12 - - S 1028,1 8 0 0,0
15.02.2019 05:00:00 4,9 2,6 21 11 - - S 1028,2 10 0 0,0
15.02.2019 04:00:00 4,7 2,7 18 10 - - S 1028,4 10 0 0,0
15.02.2019 03:00:00 5,2 2,6 15 8 - - S 1029,1 11 0 0,0
15.02.2019 02:00:00 5,1 2,8 16 9 - - S 1029,4 9 0 0,0
15.02.2019 01:00:00 5,2 3,1 18 10 - - S 1030,0 9 0 0,0
15.02.2019 00:00:00 5,8 3,0 22 12 - - S 1030,0 11 - 0,0
14.02.2019 23:00:00 5,9 2,4 24 13 - - S 1030,1 14 0 0,0
14.02.2019 22:00:00 5,4 2,7 26 14 - - S 1030,1 11 0 0,0
14.02.2019 21:00:00 5,8 2,9 29 16 - - S 1030,3 13 0 0,0
14.02.2019 20:00:00 6,5 2,4 22 12 - - S 1030,5 22 0 0,0
14.02.2019 19:00:00 7,6 3,1 18 10 - - SSE 1030,8 30 0 0,0
14.02.2019 18:00:00 7,0 2,4 9 5 - - S 1031,0 45 0 0,0
14.02.2019 17:00:00 8,8 2,4 9 5 - - SSE 1030,9 35 54 0,0
14.02.2019 16:00:00 12,6 3,2 11 6 - - S 1031,0 45 60 0,0
14.02.2019 15:00:00 13,5 3,6 15 8 - - SSW 1031,2 50 60 0,0
14.02.2019 14:00:00 13,2 4,6 15 8 - - S 1031,7 22 60 0,0
14.02.2019 13:00:00 12,0 3,7 18 10 - - S 1032,2 40 60 0,0
14.02.2019 12:00:00 11,2 4,5 13 7 - - S 1032,9 35 60 0,0
14.02.2019 11:00:00 9,6 4,3 13 7 - - S 1033,0 23 60 0,0
14.02.2019 10:00:00 7,9 3,7 21 11 - - SSW 1032,7 16 60 0,0
14.02.2019 09:00:00 5,6 2,8 24 13 - - SSW 1032,6 14 48 0,0
14.02.2019 08:00:00 3,9 2,0 24 13 - - SSW 1032,4 9 0 0,0
14.02.2019 07:00:00 4,0 2,2 28 15 - - SSW 1032,0 10 0 0,0
14.02.2019 06:00:00 4,3 2,3 29 16 - - SSW 1031,8 11 0 0,0
14.02.2019 05:00:00 4,8 2,6 28 15 - - SSW 1032,0 17 0 0,0
14.02.2019 04:00:00 4,8 2,8 29 16 - - SSW 1031,7 15 0 0,0
14.02.2019 03:00:00 5,2 2,7 29 16 - - SSW 1031,3 20 0 0,0
14.02.2019 02:00:00 5,8 3,3 37 20 48 26 SSW 1030,7 20 0 0,0
14.02.2019 01:00:00 5,9 3,5 31 17 - - SSW 1031,3 15 0 0,0
14.02.2019 00:00:00 6,4 3,8 31 17 - - SSW 1031,1 25 - 0,0
13.02.2019 23:00:00 6,9 4,2 35 19 52 28 SSW 1030,8 29 0 0,0
13.02.2019 22:00:00 7,1 4,4 35 19 48 26 SSW 1030,7 40 0 0,0
13.02.2019 21:00:00 7,5 4,8 29 16 - - SSW 1030,8 23 0 0,0
13.02.2019 20:00:00 8,0 5,2 29 16 - - SSW 1030,7 35 0 0,0
13.02.2019 19:00:00 8,3 5,3 28 15 - - SSW 1030,5 29 0 0,0
13.02.2019 18:00:00 9,2 5,5 29 16 - - SSW 1030,4 30 0 0,0
13.02.2019 17:00:00 10,0 5,4 28 15 48 26 SSW 1029,9 30 18 0,0
13.02.2019 16:00:00 11,6 5,8 28 15 - - SSW 1029,8 35 30 0,0
13.02.2019 15:00:00 11,4 5,6 28 15 - - SSW 1030,4 35 48 0,0
13.02.2019 14:00:00 11,9 6,0 34 18 48 26 SW 1030,9 50 60 0,0
13.02.2019 13:00:00 11,5 5,7 31 17 54 29 SSW 1031,0 35 60 0,0

tt = temperature
td = dewpoint
ff = wind speed
fx = gusts
dd = wind direction
ppp = reduced air pressure
vv = visibility
sd = sunshine duration
rr = precipitation

Next stations